FW8651 Weather Reports


time (UTC)temp
C
wind
direction
speed
KPH
gust
KPH
rain 1hr
cm
rain 24hr
cm
rain mn
cm
humidity
%
barometer
mb
20260507131019 14 217 0.0 1.6 0.00 0.00 0.00 41 1021.9
20260507130516 14 186 0.0 0.0 0.00 0.00 0.00 40 1022.2
20260507130014 14 181 1.6 1.6 0.00 0.00 0.00 41 1021.9
20260507125512 13 298 1.6 3.2 0.00 0.00 0.00 42 1021.7
20260507125011 13 240 0.0 0.0 0.00 0.00 0.00 42 1021.9
20260507124506 14 292 1.6 1.6 0.00 0.00 0.00 43 1021.6
20260507124004 14 347 3.2 3.2 0.00 0.00 0.00 42 1021.5
20260507123501 14 286 3.2 3.2 0.00 0.00 0.00 41 1021.7
20260507122957 13 16 4.8 8.0 0.00 0.00 0.00 44 1021.7
20260507122453 13 240 0.0 0.0 0.00 0.00 0.00 43 1021.7
20260507121949 13 10 1.6 1.6 0.00 0.00 0.00 44 1021.5
20260507121444 13 149 1.6 1.6 0.00 0.00 0.00 43 1021.4
20260507120941 13 221 0.0 1.6 0.00 0.00 0.00 42 1021.6
20260507120437 13 201 0.0 0.0 0.00 0.00 0.00 44 1021.6
20260507115934 13 208 0.0 0.0 0.00 0.00 0.00 44 1021.5
20260507115430 13 16 1.6 3.2 0.00 0.00 0.00 44 1021.4
20260507114926 13 190 1.6 1.6 0.00 0.00 0.00 45 1021.6
20260507114423 13 188 0.0 1.6 0.00 0.00 0.00 45 1021.6
20260507113920 13 223 0.0 0.0 0.00 0.00 0.00 46 1021.7
20260507113417 13 255 0.0 0.0 0.00 0.00 0.00 47 1021.5
20260507112914 13 355 3.2 3.2 0.00 0.00 0.00 47 1021.6
20260507112412 13 220 0.0 0.0 0.00 0.00 0.00 50 1021.8
20260507111909 13 197 3.2 3.2 0.00 0.00 0.00 50 1021.6
20260507111406 13 228 0.0 0.0 0.00 0.00 0.00 49 1021.7
20260507110902 13 294 0.0 1.6 0.00 0.00 0.00 50 1021.7
20260507110358 12 268 0.0 1.6 0.00 0.00 0.00 51 1021.6
20260507105855 12 249 0.0 0.0 0.00 0.00 0.00 52 1021.8
20260507105352 13 208 0.0 0.0 0.00 0.00 0.00 53 1021.7
20260507104849 13 196 0.0 0.0 0.00 0.00 0.00 55 1021.5
20260507104345 12 201 0.0 1.6 0.00 0.00 0.00 54 1021.9
20260507103841 12 201 0.0 0.0 0.00 0.00 0.00 56 1021.6
20260507103338 12 236 1.6 1.6 0.00 0.00 0.00 56 1021.9
20260507102835 13 217 0.0 0.0 0.00 0.00 0.00 55 1021.8
20260507102331 13 238 1.6 1.6 0.00 0.00 0.00 54 1021.7
20260507101828 13 241 0.0 0.0 0.00 0.00 0.00 54 1021.6
20260507101327 12 208 1.6 1.6 0.00 0.00 0.00 55 1021.7
20260507100825 12 198 0.0 0.0 0.00 0.00 0.00 56 1021.7
20260507100323 12 165 0.0 1.6 0.00 0.00 0.00 58 1021.4
20260507095821 12 193 0.0 0.0 0.00 0.00 0.00 58 1021.7
20260507095317 12 199 1.6 1.6 0.00 0.00 0.00 58 1021.7
20260507094814 12 221 0.0 1.6 0.00 0.00 0.00 58 1021.7
20260507094311 12 212 0.0 0.0 0.00 0.00 0.00 58 1021.7
20260507093808 12 242 0.0 0.0 0.00 0.00 0.00 59 1021.6
20260507093306 12 235 0.0 0.0 0.00 0.00 0.00 58 1021.9
20260507092804 12 269 0.0 0.0 0.00 0.00 0.00 57 1022.1
20260507092300 13 338 1.6 3.2 0.00 0.00 0.00 55 1021.8
20260507091756 13 302 1.6 1.6 0.00 0.00 0.00 52 1022.1
20260507091253 12 280 1.6 1.6 0.00 0.00 0.00 51 1021.8
20260507090753 12 213 0.0 0.0 0.00 0.00 0.00 52 1021.9
20260507090250 13 209 0.0 1.6 0.00 0.00 0.00 52 1021.9
20260507085747 13 231 0.0 0.0 0.00 0.00 0.00 52 1021.9
20260507085244 12 221 0.0 0.0 0.00 0.00 0.00 52 1021.7
20260507084742 13 209 0.0 0.0 0.00 0.00 0.00 53 1022.1
20260507084238 12 215 0.0 0.0 0.00 0.00 0.00 54 1021.9
20260507083735 12 190 0.0 1.6 0.00 0.00 0.00 54 1022.1
20260507083232 12 205 0.0 1.6 0.00 0.00 0.00 54 1022.3
20260507082728 12 207 0.0 0.0 0.00 0.00 0.00 54 1022.1
20260507082224 12 247 0.0 0.0 0.00 0.00 0.00 53 1022.2
20260507081721 12 245 0.0 0.0 0.00 0.00 0.00 52 1022.2
20260507081217 13 264 1.6 1.6 0.00 0.00 0.00 50 1022.1
20260507080714 13 237 0.0 1.6 0.00 0.00 0.00 49 1022.3
20260507080210 13 203 0.0 1.6 0.00 0.00 0.00 49 1022.3
20260507075705 13 191 0.0 1.6 0.00 0.00 0.00 48 1022.2
20260507075202 13 242 1.6 1.6 0.00 0.00 0.00 50 1022.3
20260507074658 12 100 1.6 3.2 0.00 0.00 0.00 50 1022.3
20260507074157 12 229 0.0 1.6 0.00 0.00 0.00 51 1022.3
20260507073653 12 191 1.6 3.2 0.00 0.00 0.00 52 1022.2
20260507073149 12 146 8.0 11.3 0.00 0.00 0.00 56 1022.2
20260507072647 12 193 1.6 1.6 0.00 0.00 0.00 58 1022.1
20260507072144 12 184 1.6 1.6 0.00 0.00 0.00 57 1022.4
20260507071642 12 165 3.2 3.2 0.00 0.00 0.00 56 1022.1
20260507071138 12 208 3.2 3.2 0.00 0.00 0.00 56 1022.3
20260507070635 11 221 0.0 0.0 0.00 0.00 0.00 58 1022.3
20260507070132 12 222 0.0 1.6 0.00 0.00 0.00 57 1022.3
20260507065628 12 211 1.6 1.6 0.00 0.00 0.00 56 1022.4
20260507065125 12 230 0.0 1.6 0.00 0.00 0.00 57 1022.5
20260507064623 11 196 1.6 3.2 0.00 0.00 0.00 61 1022.4
20260507064121 11 154 1.6 3.2 0.00 0.00 0.00 62 1022.3
20260507063618 11 184 1.6 1.6 0.00 0.00 0.00 61 1022.3
20260507063115 11 192 1.6 1.6 0.00 0.00 0.00 61 1022.3
20260507062612 11 187 1.6 1.6 0.00 0.00 0.00 63 1022.3
20260507062110 11 203 0.0 1.6 0.00 0.00 0.00 63 1022.4
20260507061607 11 200 1.6 1.6 0.00 0.00 0.00 63 1022.3
20260507061105 11 196 0.0 0.0 0.00 0.00 0.00 63 1022.5
20260507060603 11 194 0.0 1.6 0.00 0.00 0.00 62 1022.1
20260507060059 11 196 1.6 1.6 0.00 0.00 0.00 62 1022.2
20260507055554 11 218 1.6 1.6 0.00 0.00 0.00 63 1022.3
20260507055051 11 218 0.0 1.6 0.00 0.00 0.00 63 1022.2
20260507054547 11 215 0.0 0.0 0.00 0.00 0.00 62 1022.4
20260507054044 11 220 1.6 1.6 0.00 0.00 0.00 62 1022.5
20260507053542 11 224 0.0 0.0 0.00 0.00 0.00 63 1022.6
20260507053040 11 184 0.0 0.0 0.00 0.00 0.00 63 1022.4
20260507052538 11 219 0.0 1.6 0.00 0.00 0.00 65 1022.8
20260507052034 11 201 1.6 1.6 0.00 0.00 0.00 66 1022.5
20260507051532 11 208 0.0 0.0 0.00 0.00 0.00 67 1022.6
20260507051028 11 227 0.0 0.0 0.00 0.00 0.00 67 1022.4
20260507050525 11 222 0.0 0.0 0.00 0.00 0.00 67 1022.3
20260507050022 11 242 3.2 4.8 0.00 0.00 0.00 68 1022.4
20260507045518 11 230 0.0 0.0 0.00 0.00 0.00 68 1022.3
20260507045016 11 242 0.0 0.0 0.00 0.00 0.00 70 1022.4
20260507044512 11 226 1.6 1.6 0.00 0.00 0.00 68 1022.2
20260507044009 11 243 0.0 0.0 0.00 0.00 0.00 69 1022.3
20260507043505 11 230 1.6 1.6 0.00 0.00 0.00 73 1022.3
20260507043002 11 230 0.0 1.6 0.00 0.00 0.00 76 1022.4
20260507042458 11 206 0.0 1.6 0.00 0.00 0.00 76 1022.3
20260507041954 10 223 0.0 0.0 0.00 0.00 0.00 77 1022.3
20260507041451 10 223 0.0 1.6 0.00 0.00 0.00 77 1022.2
20260507040948 10 194 0.0 1.6 0.00 0.00 0.00 78 1022.5
20260507040443 10 192 0.0 0.0 0.00 0.00 0.00 78 1022.2
20260507035939 10 213 1.6 1.6 0.00 0.00 0.00 78 1022.2
20260507035436 11 308 1.6 1.6 0.00 0.00 0.00 76 1022.5
20260507034933 10 313 3.2 3.2 0.00 0.00 0.00 78 1022.1
20260507034430 10 215 0.0 0.0 0.00 0.00 0.00 78 1021.8
20260507033928 11 258 1.6 1.6 0.00 0.00 0.00 75 1021.9
20260507033426 11 332 4.8 4.8 0.00 0.00 0.00 74 1021.6
20260507032922 11 32 4.8 4.8 0.00 0.00 0.00 75 1021.7
20260507032420 11 341 6.4 8.0 0.00 0.00 0.00 77 1021.8
20260507031915 11 214 1.6 1.6 0.00 0.00 0.00 77 1021.8
20260507031412 11 196 1.6 3.2 0.00 0.00 0.00 77 1021.8
20260507030909 11 209 1.6 1.6 0.00 0.00 0.00 76 1021.7
20260507030406 11 231 0.0 1.6 0.00 0.00 0.00 76 1021.7
20260507025903 11 243 0.0 0.0 0.00 0.00 0.00 75 1021.7
20260507025401 11 201 0.0 1.6 0.00 0.00 0.00 75 1021.6
20260507024858 11 195 0.0 1.6 0.00 0.00 0.00 75 1021.5
20260507024355 11 173 0.0 1.6 0.00 0.00 0.00 76 1021.8
20260507023851 11 195 0.0 0.0 0.00 0.00 0.00 76 1021.7
20260507023348 11 191 1.6 1.6 0.00 0.00 0.00 76 1021.2
20260507022845 12 186 1.6 1.6 0.00 0.00 0.00 75 1021.5
20260507022342 12 210 1.6 3.2 0.00 0.00 0.00 72 1021.6
20260507021838 12 190 4.8 4.8 0.00 0.00 0.00 73 1021.4
20260507021333 12 287 3.2 4.8 0.00 0.00 0.00 71 1021.1
20260507020831 12 300 4.8 4.8 0.00 0.00 0.00 71 1020.9
20260507020328 12 316 4.8 4.8 0.00 0.00 0.00 67 1021.1
20260507015825 13 227 3.2 3.2 0.00 0.00 0.00 66 1021.1
20260507015323 13 299 4.8 4.8 0.00 0.00 0.00 63 1021.0
20260507014820 14 298 3.2 3.2 0.00 0.00 0.00 65 1021.1
20260507014316 14 294 3.2 3.2 0.00 0.00 0.00 64 1021.1
20260507013812 14 207 1.6 1.6 0.00 0.00 0.00 62 1020.9
20260507013310 15 231 0.0 0.0 0.00 0.00 0.00 63 1021.1
20260507012807 15 323 4.8 4.8 0.00 0.00 0.00 64 1020.9
20260507012306 15 261 1.6 1.6 0.00 0.00 0.00 62 1021.1
20260507011800 15 239 4.8 8.0 0.00 0.00 0.00 62 1020.9
20260507011257 15 261 1.6 3.2 0.00 0.00 0.00 61 1020.9
20260507010756 15 284 0.0 1.6 0.00 0.00 0.00 61 1020.9
20260507010252 15 289 1.6 1.6 0.00 0.00 0.00 61 1020.9
20260507005750 15 316 1.6 1.6 0.00 0.00 0.00 61 1021.1
20260507005246 15 314 1.6 3.2 0.00 0.00 0.00 61 1021.0
20260507004743 15 312 4.8 4.8 0.00 0.00 0.00 62 1021.2
20260507004241 15 229 1.6 1.6 0.00 0.00 0.00 64 1021.0
20260507003736 15 254 1.6 1.6 0.00 0.00 0.00 69 1021.0
20260507003232 15 231 3.2 4.8 0.00 0.00 0.00 68 1020.9
20260507002728 16 237 3.2 4.8 0.00 0.00 0.00 69 1020.6
20260507002224 16 264 1.6 3.2 0.00 0.00 0.00 70 1020.8
20260507001721 15 282 1.6 3.2 0.00 0.00 0.00 71 1020.6
20260507001219 15 268 3.2 3.2 0.00 0.00 0.00 71 1020.8
20260507000715 16 337 3.2 3.2 0.00 0.00 0.00 71 1020.8
20260507000212 16 278 1.6 1.6 0.00 0.00 0.00 69 1020.8
20260506235708 16 316 4.8 4.8 0.00 0.00 0.00 68 1020.5
20260506235203 17 203 1.6 3.2 0.00 0.00 0.00 62 1020.4
20260506234700 17 286 4.8 4.8 0.00 0.00 0.00 61 1020.5
20260506234157 17 295 1.6 3.2 0.00 0.00 0.00 58 1020.3
20260506233655 17 282 1.6 1.6 0.00 0.00 0.00 62 1020.5
20260506233151 17 247 3.2 3.2 0.00 0.00 0.00 62 1020.6
20260506232648 17 229 1.6 1.6 0.00 0.00 0.00 64 1020.6
20260506232143 17 219 1.6 1.6 0.00 0.00 0.00 62 1020.6
20260506231640 16 283 3.2 3.2 0.00 0.00 0.00 60 1020.4
20260506231139 16 301 3.2 3.2 0.00 0.00 0.00 65 1020.8
20260506230635 16 296 1.6 1.6 0.00 0.00 0.00 65 1020.8
20260506230132 16 247 1.6 1.6 0.00 0.00 0.00 66 1020.8
20260506225628 16 206 0.0 0.0 0.00 0.00 0.00 66 1020.5
20260506225125 16 12 4.8 4.8 0.00 0.00 0.00 67 1020.4
20260506224622 16 249 1.6 3.2 0.00 0.00 0.00 69 1020.5
20260506224118 16 275 3.2 3.2 0.00 0.00 0.00 69 1020.9
20260506223615 17 258 3.2 4.8 0.00 0.00 0.00 67 1020.8
20260506223111 17 272 4.8 8.0 0.00 0.00 0.00 63 1020.6
20260506222608 16 197 1.6 3.2 0.00 0.00 0.00 65 1020.6
20260506222104 15 180 3.2 4.8 0.00 0.00 0.00 67 1020.5
20260506221602 17 165 3.2 4.8 0.00 0.00 0.00 68 1020.8
20260506221100 17 233 1.6 1.6 0.00 0.00 0.00 66 1020.8
20260506220555 16 218 4.8 4.8 0.00 0.00 0.00 63 1020.6
20260506220051 15 185 4.8 4.8 0.00 0.00 0.00 66 1020.6
20260506215548 16 220 6.4 8.0 0.00 0.00 0.00 65 1020.8
20260506215044 16 193 4.8 8.0 0.00 0.00 0.00 67 1020.9
20260506214541 15 219 1.6 3.2 0.00 0.00 0.00 67 1020.9
20260506214038 16 229 3.2 3.2 0.00 0.00 0.00 66 1020.9
20260506213536 16 220 0.0 1.6 0.00 0.00 0.00 66 1021.1
20260506213033 16 307 3.2 4.8 0.00 0.00 0.00 65 1021.4
20260506212530 16 231 3.2 3.2 0.00 0.00 0.00 65 1021.2
20260506212025 15 215 4.8 4.8 0.00 0.00 0.00 68 1020.9
20260506211521 16 211 1.6 3.2 0.00 0.00 0.00 68 1021.1
20260506211018 15 254 4.8 4.8 0.00 0.00 0.00 67 1021.0
20260506210515 16 228 4.8 8.0 0.00 0.00 0.00 65 1021.2
20260506210011 16 200 4.8 4.8 0.00 0.00 0.00 68 1021.1
20260506205508 15 214 4.8 4.8 0.00 0.00 0.00 72 1021.0
20260506205003 15 203 3.2 4.8 0.00 0.00 0.00 73 1021.2
20260506204502 15 251 3.2 4.8 0.00 0.00 0.00 70 1021.1
20260506203958 15 247 3.2 3.2 0.00 0.00 0.00 70 1021.1
20260506203456 15 191 3.2 4.8 0.00 0.00 0.00 70 1021.4
20260506202953 16 203 0.0 0.0 0.00 0.00 0.00 69 1021.1
20260506202450 15 212 1.6 1.6 0.00 0.00 0.00 70 1021.1
20260506201946 16 200 0.0 0.0 0.00 0.00 0.00 71 1021.5
20260506201444 16 191 1.6 1.6 0.00 0.00 0.00 67 1021.1
20260506200940 15 277 1.6 1.6 0.00 0.00 0.00 65 1021.1
20260506200437 16 256 3.2 3.2 0.00 0.00 0.00 66 1021.2
20260506195933 16 153 4.8 4.8 0.00 0.00 0.00 64 1021.2
20260506195430 16 190 1.6 3.2 0.00 0.00 0.00 58 1021.4
20260506194927 16 186 1.6 1.6 0.00 0.00 0.00 56 1021.6
20260506194424 16 190 3.2 3.2 0.00 0.00 0.00 56 1021.6
20260506193921 16 232 4.8 4.8 0.00 0.00 0.00 54 1021.6
20260506193418 16 129 4.8 8.0 0.00 0.00 0.00 59 1021.6
20260506192914 15 355 4.8 8.0 0.00 0.00 0.00 55 1021.1
20260506192411 15 274 4.8 4.8 0.00 0.00 0.00 52 1021.4
20260506191908 16 214 1.6 4.8 0.00 0.00 0.00 53 1021.6
20260506191404 16 255 1.6 1.6 0.00 0.00 0.00 52 1021.6
20260506190902 16 238 3.2 3.2 0.00 0.00 0.00 57 1021.6
20260506190358 15 247 3.2 3.2 0.00 0.00 0.00 55 1021.5
20260506185855 16 224 1.6 1.6 0.00 0.00 0.00 56 1021.6
20260506185352 15 245 1.6 1.6 0.00 0.00 0.00 56 1021.4
20260506184849 15 203 3.2 4.8 0.00 0.00 0.00 54 1021.5
20260506184346 15 344 8.0 11.3 0.00 0.00 0.00 52 1021.1
20260506183843 15 277 0.0 1.6 0.00 0.00 0.00 55 1021.4
20260506183338 15 214 4.8 4.8 0.00 0.00 0.00 52 1021.4
20260506182836 15 254 1.6 3.2 0.00 0.00 0.00 52 1021.4
20260506182333 15 242 1.6 3.2 0.00 0.00 0.00 57 1021.7
20260506181831 15 165 3.2 3.2 0.00 0.00 0.00 57 1021.4
20260506181329 15 341 4.8 4.8 0.00 0.00 0.00 53 1021.4
20260506180825 15 113 1.6 3.2 0.00 0.00 0.00 56 1021.2
20260506180321 14 192 0.0 0.0 0.00 0.00 0.00 56 1021.4
20260506175818 14 299 3.2 3.2 0.00 0.00 0.00 52 1021.6
20260506175315 13 278 3.2 3.2 0.00 0.00 0.00 55 1021.5
20260506174812 14 316 0.0 1.6 0.00 0.00 0.00 55 1021.6
20260506174309 13 214 0.0 0.0 0.00 0.00 0.00 57 1021.1
20260506173807 13 142 6.4 8.0 0.00 0.00 0.00 55 1021.2
20260506173303 13 245 1.6 1.6 0.00 0.00 0.00 59 1021.2
20260506172800 12 259 0.0 1.6 0.00 0.00 0.00 62 1021.2
20260506172257 12 102 1.6 1.6 0.00 0.00 0.00 58 1021.2
20260506171754 13 343 4.8 4.8 0.00 0.00 0.00 59 1021.2
20260506171251 13 112 3.2 3.2 0.00 0.00 0.00 54 1021.1
20260506170749 13 290 3.2 3.2 0.00 0.00 0.00 56 1021.1
20260506170245 13 178 1.6 1.6 0.00 0.00 0.00 52 1021.1
20260506165744 12 253 3.2 3.2 0.00 0.00 0.00 58 1020.9
20260506165241 12 266 3.2 3.2 0.00 0.00 0.00 54 1021.1
20260506164738 12 325 4.8 4.8 0.00 0.00 0.00 56 1020.9
20260506164235 12 189 0.0 1.6 0.00 0.00 0.00 56 1020.9
20260506163732 12 227 0.0 1.6 0.00 0.00 0.00 61 1020.8
20260506163226 11 270 0.0 1.6 0.00 0.00 0.00 63 1020.8
20260506162722 11 243 1.6 1.6 0.00 0.00 0.00 63 1020.9
20260506162220 11 231 0.0 1.6 0.00 0.00 0.00 65 1020.6
20260506161712 11 245 1.6 1.6 0.00 0.00 0.00 66 1020.5
20260506161209 11 240 0.0 0.0 0.00 0.00 0.00 62 1020.4
20260506160706 11 279 1.6 1.6 0.00 0.00 0.00 63 1020.6
20260506160202 11 214 0.0 0.0 0.00 0.00 0.00 61 1020.8
20260506155701 11 88 0.0 1.6 0.00 0.00 0.00 61 1020.6
20260506155158 10 192 1.6 3.2 0.00 0.00 0.00 64 1020.6
20260506153300 9 210 3.2 3.2 0.00 0.00 0.00 68 1020.4
20260506152757 9 259 1.6 1.6 0.00 0.00 0.00 65 1020.3
20260506152254 9 328 0.0 1.6 0.00 0.00 0.00 65 1020.3
20260506151753 8 282 3.2 3.2 0.00 0.00 0.00 68 1020.3
20260506151249 8 248 1.6 1.6 0.00 0.00 0.00 68 1020.2
20260506150746 8 205 1.6 1.6 0.00 0.00 0.00 71 1019.8
20260506150243 7 356 4.8 4.8 0.00 0.00 0.00 72 1020.2
20260506145740 7 315 4.8 4.8 0.00 0.00 0.00 71 1019.9
20260506145236 7 329 3.2 4.8 0.00 0.00 0.00 73 1020.2
20260506144734 7 326 4.8 4.8 0.00 0.00 0.00 74 1020.2
20260506144231 7 299 3.2 4.8 0.00 0.00 0.00 75 1019.9
20260506143728 6 314 4.8 4.8 0.00 0.00 0.00 78 1020.1
20260506143225 6 237 3.2 4.8 0.00 0.00 0.00 78 1019.9
20260506142724 6 226 0.0 0.0 0.00 0.00 0.00 79 1020.1
20260506142221 6 193 9.7 11.3 0.00 0.00 0.00 77 1019.7
20260506141719 6 293 3.2 4.8 0.00 0.00 0.00 76 1019.9
20260506141217 5 291 4.8 4.8 0.00 0.00 0.00 79 1019.8
20260506140715 6 303 8.0 11.3 0.00 0.00 0.00 79 1019.8
20260506140212 5 281 6.4 9.7 0.00 0.00 0.00 79 1019.6
20260506135708 5 282 4.8 4.8 0.00 0.00 0.00 84 1019.5
20260506135205 5 319 0.0 1.6 0.00 0.00 0.00 82 1019.6
20260506134701 5 292 3.2 3.2 0.00 0.00 0.00 84 1019.6
20260506134157 6 302 3.2 4.8 0.00 0.00 0.00 80 1019.5
20260506133655 5 357 9.7 11.3 0.00 0.00 0.00 82 1019.6
20260506133151 5 283 3.2 3.2 0.00 0.00 0.00 84 1019.3
20260506132649 4 279 1.6 3.2 0.00 0.00 0.00 87 1019.5
20260506132145 4 321 4.8 8.0 0.00 0.00 0.00 88 1018.9
20260506131643 4 250 1.6 1.6 0.00 0.00 0.00 88 1019.1